DW6794 Weather Reports


Display with metric or nautical units.
time (UTC)temp
F
wind
direction
speed
MPH
gust
MPH
rain 1hr
in
rain 24hr
in
rain mn
in
humidity
%
barometer
mb
20150705191417 79 272 2.0 12.0 0.00 0.06 0.02 69 1012.0
20150705190417 80 248 2.0 12.0 0.00 0.06 0.02 70 1012.0
20150705185418 80 269 6.0 10.0 0.00 0.06 0.02 70 1012.0
20150705184417 79 259 4.0 9.0 0.00 0.06 0.02 70 1012.1
20150705183417 79 259 5.0 13.0 0.00 0.06 0.02 70 1012.4
20150705182418 78 245 5.0 9.0 0.00 0.06 0.02 72 1012.5
20150705181418 77 212 6.0 12.0 0.00 0.06 0.02 72 1012.5
20150705180419 77 250 7.0 10.0 0.00 0.06 0.02 71 1012.8
20150705175417 78 257 6.0 10.0 0.00 0.06 0.02 73 1012.7
20150705174418 77 258 6.0 13.0 0.00 0.06 0.02 72 1012.9
20150705173418 78 254 7.0 13.0 0.00 0.06 0.02 71 1013.1
20150705172418 80 257 8.0 17.0 0.00 0.06 0.02 69 1013.0
20150705171417 81 228 3.0 7.0 0.00 0.06 0.02 69 1012.5
20150705170417 81 177 1.0 5.0 0.00 0.06 0.02 71 1012.6
20150705165418 80 184 1.0 6.0 0.00 0.06 0.02 70 1012.6
20150705164417 80 249 1.0 6.0 0.00 0.06 0.02 71 1012.7
20150705163418 80 165 1.0 7.0 0.00 0.06 0.02 71 1012.7
20150705162418 79 229 5.0 7.0 0.00 0.06 0.02 71 1013.1
20150705161418 80 214 5.0 7.0 0.00 0.06 0.02 72 1013.1
20150705160418 79 146 1.0 8.0 0.00 0.06 0.02 74 1013.2
20150705155418 79 220 0.0 3.0 0.00 0.06 0.02 75 1013.3
20150705154418 79 298 4.0 8.0 0.00 0.06 0.02 75 1013.3
20150705153418 79 222 2.0 9.0 0.00 0.06 0.02 76 1013.3
20150705152418 79 232 0.0 9.0 0.00 0.06 0.02 78 1013.4
20150705151419 79 142 0.0 3.0 0.00 0.06 0.02 79 1013.5
20150705150418 78 168 2.0 8.0 0.00 0.06 0.02 79 1013.5
20150705145419 78 139 2.0 5.0 0.00 0.06 0.02 82 1013.5
20150705144418 77 168 0.0 5.0 0.00 0.06 0.02 83 1013.6
20150705143418 77 167 1.0 5.0 0.00 0.06 0.02 84 1013.5
20150705142419 76 168 1.0 6.0 0.00 0.06 0.02 85 1013.7
20150705141419 75 317 0.0 0.0 0.00 0.06 0.02 86 1013.7
20150705140418 75 53 0.0 0.0 0.00 0.06 0.02 87 1013.8
20150705135419 74 53 0.0 0.0 0.00 0.06 0.02 88 1013.8
20150705134419 73 53 0.0 0.0 0.00 0.06 0.02 88 1013.8
20150705133419 73 50 0.0 0.0 0.00 0.06 0.02 88 1013.9
20150705132418 72 50 0.0 0.0 0.00 0.06 0.02 89 1014.1
20150705131418 72 50 0.0 0.0 0.00 0.06 0.02 89 1014.2
20150705130418 71 58 0.0 0.0 0.00 0.06 0.02 89 1014.3
20150705125419 70 5 0.0 0.0 0.00 0.06 0.02 90 1014.4
20150705124418 70 355 0.0 0.0 0.00 0.06 0.02 90 1014.4
20150705123418 69 22 0.0 0.0 0.00 0.06 0.02 90 1014.4
20150705122419 69 22 0.0 0.0 0.00 0.06 0.02 89 1014.3
20150705121419 69 22 0.0 0.0 0.00 0.06 0.02 89 1014.3
20150705120419 68 22 0.0 0.0 0.00 0.06 0.02 89 1014.3
20150705115419 68 336 0.0 0.0 0.00 0.06 0.02 89 1014.3
20150705114419 68 336 0.0 0.0 0.00 0.06 0.02 89 1014.3
20150705113419 68 336 0.0 0.0 0.00 0.06 0.02 89 1014.2
20150705112418 68 336 0.0 0.0 0.00 0.06 0.02 89 1014.0
20150705111419 68 336 0.0 0.0 0.00 0.06 0.02 89 1014.0
20150705110418 68 336 0.0 0.0 0.00 0.06 0.02 89 1014.0
20150705105419 68 336 0.0 0.0 0.00 0.06 0.02 89 1013.9
20150705104419 68 333 0.0 0.0 0.00 0.06 0.02 89 1013.9
20150705103419 68 343 0.0 0.0 0.00 0.06 0.02 89 1013.8
20150705102419 68 343 0.0 0.0 0.00 0.06 0.02 89 1013.8
20150705101419 68 343 0.0 0.0 0.00 0.06 0.02 89 1013.6
20150705100419 68 343 0.0 0.0 0.00 0.06 0.02 89 1013.5
20150705095419 68 343 0.0 0.0 0.00 0.06 0.02 89 1013.4
20150705094419 68 343 0.0 0.0 0.00 0.06 0.02 89 1013.4
20150705093419 68 343 0.0 0.0 0.00 0.06 0.02 89 1013.4
20150705092419 68 343 0.0 0.0 0.00 0.06 0.02 88 1013.4
20150705091419 68 342 0.0 0.0 0.00 0.06 0.02 88 1013.7
20150705090419 68 342 0.0 0.0 0.01 0.06 0.02 88 1013.6
20150705085419 68 342 0.0 0.0 0.01 0.06 0.02 88 1013.7
20150705084419 68 342 0.0 0.0 0.01 0.06 0.02 88 1013.7
20150705083419 68 342 0.0 0.0 0.01 0.06 0.02 88 1013.7
20150705082420 68 342 0.0 0.0 0.02 0.06 0.02 88 1013.7
20150705081420 68 342 0.0 0.0 0.02 0.06 0.02 88 1013.8
20150705080420 68 342 0.0 0.0 0.01 0.05 0.01 88 1013.8
20150705075419 68 342 0.0 0.0 0.01 0.05 0.01 88 1013.8
20150705074420 68 342 0.0 0.0 0.01 0.05 0.01 88 1013.9
20150705073420 68 342 0.0 0.0 0.01 0.05 0.01 87 1014.0
20150705072420 68 342 0.0 0.0 0.00 0.04 0.00 87 1013.9
20150705071420 68 342 0.0 0.0 0.00 0.04 0.00 87 1013.8
20150705070420 68 342 0.0 0.0 0.00 0.04 0.00 87 1013.8
20150705065419 68 342 0.0 0.0 0.00 0.04 0.00 87 1013.8
20150705064419 69 342 0.0 0.0 0.00 0.04 0.00 87 1013.8
20150705063420 69 342 0.0 0.0 0.00 0.04 0.00 87 1013.8
20150705062420 69 342 0.0 0.0 0.00 0.04 0.00 87 1013.8
20150705061420 69 342 0.0 0.0 0.00 0.04 0.00 87 1013.8
20150705060419 69 342 0.0 0.0 0.00 0.04 0.00 87 1013.8
20150705055419 69 342 0.0 0.0 0.00 0.04 0.00 87 1013.9
20150705054420 69 342 0.0 0.0 0.00 0.04 0.00 87 1013.9
20150705053419 69 342 0.0 0.0 0.00 0.04 0.00 87 1014.1
20150705052421 69 342 0.0 0.0 0.00 0.04 0.00 87 1014.2
20150705051420 69 342 0.0 0.0 0.00 0.04 0.00 87 1014.1
20150705050420 69 342 0.0 0.0 0.00 0.04 0.00 87 1014.1
20150705045420 69 342 0.0 0.0 0.00 0.04 0.00 87 1014.2
20150705044420 69 342 0.0 0.0 0.00 0.04 0.00 86 1014.2
20150705043420 69 342 0.0 0.0 0.00 0.04 0.00 86 1014.1
20150705042420 69 342 0.0 0.0 0.00 0.04 0.00 86 1014.0
20150705041420 69 342 0.0 0.0 0.00 0.04 0.00 86 1014.0
20150705040421 69 342 0.0 0.0 0.00 0.04 0.00 86 1014.0
20150705035421 69 342 0.0 0.0 0.00 0.04 0.04 85 1014.1
20150705034421 69 342 0.0 0.0 0.00 0.04 0.04 85 1014.1
20150705033421 69 342 0.0 0.0 0.00 0.04 0.04 84 1014.2
20150705032420 69 342 0.0 0.0 0.00 0.04 0.04 84 1014.2
20150705031420 69 342 0.0 0.0 0.00 0.04 0.04 84 1014.1
20150705030420 69 342 0.0 0.0 0.00 0.04 0.04 84 1014.2
20150705025421 69 342 0.0 0.0 0.00 0.04 0.04 84 1014.1
20150705024421 69 342 0.0 0.0 0.00 0.04 0.04 84 1014.0
20150705023420 69 342 0.0 0.0 0.00 0.04 0.04 84 1013.9
20150705022421 69 342 0.0 0.0 0.00 0.04 0.04 84 1013.8
20150705021421 70 342 0.0 0.0 0.00 0.04 0.04 84 1013.7
20150705020421 70 342 0.0 0.0 0.00 0.04 0.04 84 1013.5
20150705015420 70 342 0.0 0.0 0.00 0.04 0.04 83 1013.1
20150705014420 70 342 0.0 0.0 0.00 0.04 0.04 83 1012.9
20150705013420 70 342 0.0 0.0 0.00 0.04 0.04 82 1012.6
20150705012421 71 342 0.0 0.0 0.00 0.04 0.04 82 1012.6
20150705011420 71 342 0.0 0.0 0.00 0.04 0.04 82 1012.5
20150705010421 71 342 0.0 0.0 0.00 0.04 0.04 81 1012.4
20150705005421 71 342 0.0 0.0 0.00 0.04 0.04 81 1012.3
20150705004421 72 342 0.0 0.0 0.00 0.04 0.04 81 1012.3
20150705003421 72 342 0.0 1.0 0.00 0.04 0.04 81 1012.1
20150705002420 73 221 0.0 0.0 0.02 0.04 0.04 81 1012.1
20150705001421 73 221 0.0 0.0 0.02 0.04 0.04 80 1012.2
20150705000421 73 221 0.0 0.0 0.02 0.04 0.04 80 1012.1
20150704235421 73 221 0.0 3.0 0.02 0.04 0.04 79 1012.1
20150704234421 73 221 1.0 3.0 0.02 0.04 0.04 78 1012.0
20150704233421 74 221 3.0 9.0 0.02 0.04 0.04 77 1012.1
20150704232421 76 256 7.0 13.0 0.00 0.02 0.02 77 1012.1
20150704231421 76 247 5.0 9.0 0.00 0.02 0.02 77 1012.0
20150704230421 76 252 6.0 10.0 0.00 0.02 0.02 77 1011.9
20150704225421 76 240 5.0 9.0 0.00 0.02 0.02 77 1011.9
20150704224420 76 251 5.0 9.0 0.00 0.02 0.02 77 1011.9
20150704223421 76 243 3.0 8.0 0.00 0.02 0.02 78 1011.9
20150704222421 76 243 3.0 8.0 0.00 0.02 0.02 78 1011.8
20150704221421 76 250 5.0 8.0 0.00 0.02 0.02 78 1011.8
20150704220421 76 239 5.0 7.0 0.00 0.02 0.02 78 1012.0
20150704215421 76 227 3.0 7.0 0.00 0.02 0.02 79 1011.8
20150704214421 76 227 5.0 8.0 0.00 0.02 0.02 79 1011.7
20150704213421 76 256 5.0 9.0 0.02 0.02 0.02 79 1011.6
20150704212421 75 337 3.0 7.0 0.02 0.02 0.02 80 1011.7
20150704211421 75 244 5.0 9.0 0.02 0.02 0.02 80 1011.7
20150704210421 75 256 4.0 8.0 0.02 0.02 0.02 77 1011.9
20150704205422 75 236 4.0 7.0 0.02 0.02 0.02 79 1012.0
20150704204421 75 261 1.0 14.0 0.02 0.02 0.02 78 1012.0
20150704203422 77 251 5.0 10.0 0.00 0.00 0.00 76 1011.8
20150704202422 77 263 6.0 12.0 0.00 0.00 0.00 76 1011.7
20150704201422 77 259 5.0 8.0 0.00 0.00 0.00 77 1011.7
20150704200421 76 248 6.0 10.0 0.00 0.00 0.00 77 1011.9
20150704195421 76 252 6.0 12.0 0.00 0.00 0.00 77 1011.9
20150704194421 76 244 6.0 8.0 0.00 0.00 0.00 78 1011.9
20150704193422 76 269 5.0 9.0 0.00 0.01 0.00 78 1011.9
20150704192421 76 196 6.0 12.0 0.00 0.01 0.00 78 1011.9